Location: *
(50.2903°S, 172.5375°W)
Time: 16:28:22
(UTC+00:00)

Aureole 2 Rocket - Pass Details

Date: 17 November 2019
Orbit: 311 x 467 km, 73.9° (Epoch: 15 December)

Event Time Altitude Azimuth Distance (km) Brightness Sun altitude
Exits shadow 14:35:46 - 5° (N) 2,150 5.5 -7.8°
Reaches altitude 10° 14:37:54 10° 20° (NNE) 1,330 4.6 -7.6°
Maximum altitude 14:40:14 22° 74° (ENE) 822 4.1 -7.3°
Drops below altitude 10° 14:42:31 10° 129° (SE) 1,299 6.6 -7.0°
Sets 14:44:41 0° 144° (SE) 2,128 7.8 -6.8°
